IVALO current weather conditions

sailwx.info

Wind from 050 at 8 knots

Air temperature 5.0° C
Visibility: greater than 5.4 NM
Dewpoint 4.0° C

Last reported at 2015-Jul-07 05:50 UTC.
Time now 2015-Jul-07 06:52 UTC

Location: N 68°37' E 027°25'.
View on Google Maps.

See reports from other nearby stations

  
Tides and Currents Weather Stations Pressure Air Temp Water Temp Dewpoint Dewpoint Depression Visibility Wind Speed Wind Dir Waves Ship Positions
date/time (UTC)wind fromknots sea level pressurealtimeterstation pressurevisibilityair tempwater tempwave heightnotes
2015-Jul-07 05:50 050 8 5.4 5.0
2015-Jul-07 05:20 050 7 5.4 5.0 Light rain.
2015-Jul-07 04:50 050 7 5.4 5.0 Light drizzle.
2015-Jul-07 04:20 050 6 5.4 5.0 Light rain.
2015-Jul-07 03:50 050 6 5.4 5.0 Light rain.
2015-Jul-07 03:20 050 6 5.4 6.0 Light rain.
2015-Jul-07 02:50 040 6 5.4 6.0 Light rain.
2015-Jul-07 02:20 040 6 5.4 6.0 Light rain showers.
2015-Jul-07 01:50 050 7 5.4 7.0 Light rain showers.
2015-Jul-07 01:20 050 6 5.4 7.0 Light rain showers.
2015-Jul-07 00:50 040 7 7.0
2015-Jul-07 00:20 040 6 8.0
2015-Jul-06 23:50 040 5 8.0
2015-Jul-06 23:20 040 6 8.0
2015-Jul-06 22:50 040 7 8.0
2015-Jul-06 22:20 040 6 8.0
2015-Jul-06 21:50 050 4 5.4 8.0 Light rain.
2015-Jul-06 21:20 040 6 9.0
2015-Jul-06 20:50 040 5 9.0
2015-Jul-06 20:20 030 4 9.0
2015-Jul-06 19:50 030 3 5.4 9.0
2015-Jul-06 19:20 040 4 5.410.0
2015-Jul-06 18:50 040 4 10.0
2015-Jul-06 18:20 030 4 5.410.0 Light rain showers.
2015-Jul-06 17:50 030 3 5.410.0 Light rain.
2015-Jul-06 17:20 020 4 5.410.0
2015-Jul-06 16:50 030 5 11.0
2015-Jul-06 16:20 030 6 11.0
2015-Jul-06 15:50 050 6 5.411.0
2015-Jul-06 15:20 030 6 5.411.0 Light rain.
2015-Jul-06 14:50 030 6 5.411.0 Light rain.
2015-Jul-06 14:20 060 6 11.0
2015-Jul-06 13:50 030 7 11.0
2015-Jul-06 13:20 030 8 11.0
2015-Jul-06 12:50 050 5 11.0
2015-Jul-06 12:20 11.0
2015-Jul-06 11:50 040 4 11.0
2015-Jul-06 11:20 5.411.0
2015-Jul-06 10:50 060 5 5.410.0
2015-Jul-06 10:20 5.411.0
2015-Jul-06 09:50 5.411.0
2015-Jul-06 09:20 060 3 5.4 9.0
2015-Jul-06 08:50 5.410.0
2015-Jul-06 08:20 040 3 5.4 9.0
2015-Jul-06 07:50 090 2 5.4 9.0
2015-Jul-06 07:20 5.4 8.0
2015-Jul-06 06:50 050 4 5.4 8.0
2015-Jul-06 06:20 040 5 5.4 8.0
2015-Jul-06 05:50 050 3 5.4 8.0
2015-Jul-06 05:20 350 2 5.4 7.0
2015-Jul-06 04:50 290 1 5.4 7.0
2015-Jul-06 04:20 300 1 5.4 6.0
2015-Jul-06 03:50 7.0
2015-Jul-06 03:20 220 3 5.0
2015-Jul-06 02:50 220 4 4.0
2015-Jul-06 02:20 230 3 5.4 3.0
2015-Jul-06 01:50 250 5 5.4 3.0
2015-Jul-06 01:20 240 4 5.4 2.0
2015-Jul-06 00:50 260 2 2.0
2015-Jul-06 00:20 240 3 5.4 3.0
2015-Jul-05 23:50 220 1 5.4 3.0
2015-Jul-05 23:20 230 2 5.4 4.0
2015-Jul-05 22:50 310 1 5.4 4.0
2015-Jul-05 22:20 040 1 5.4 5.0
2015-Jul-05 21:50 360 3 5.0
2015-Jul-05 21:20 350 3 6.0
2015-Jul-05 20:50 350 4 6.0
2015-Jul-05 20:20 350 5 7.0
2015-Jul-05 19:50 350 5 8.0
2015-Jul-05 19:20 030 7 5.4 8.0
2015-Jul-05 18:50 360 7 5.4 9.0
2015-Jul-05 18:20 030 4 5.4 9.0
2015-Jul-05 17:50 030 6 5.4 8.0
2015-Jul-05 17:20 330 6 5.4 9.0
2015-Jul-05 16:50 320 5 5.4 9.0
2015-Jul-05 16:20 020 7 5.4 9.0
2015-Jul-05 15:50 360 6 5.4 9.0
2015-Jul-05 15:20 360 5 5.4 9.0 Light rain showers.
2015-Jul-05 14:50 360 9 5.4 7.0 Light rain showers.
2015-Jul-05 14:20 290 6 5.4 9.0
2015-Jul-05 13:50 320 12 5.4 8.0 Light rain showers.
2015-Jul-05 13:20 300 10 5.4 8.0 Light rain showers.
2015-Jul-05 12:50 350 11 5.410.0
2015-Jul-05 12:20 350 7 5.4 9.0 Light rain showers.
2015-Jul-05 11:50 350 9 5.4 9.0
2015-Jul-05 11:20 360 11 5.4 8.0 Light rain showers.
2015-Jul-05 10:50 350 9 5.4 9.0
2015-Jul-05 10:20 350 7 gusting 20 5.4 8.0
2015-Jul-05 09:50 020 8 5.4 9.0 Showers in the vicinity.
2015-Jul-05 09:20 350 8 5.4 7.0 Light rain showers.
2015-Jul-05 08:50 320 12 5.4 8.0
2015-Jul-05 08:20 330 11 5.4 8.0
2015-Jul-05 07:50 310 13 5.4 8.0
2015-Jul-05 07:20 320 12 5.4 8.0
2015-Jul-05 06:50 330 12 5.4 8.0
2015-Jul-05 06:20 330 11 5.4 7.0